Location: ???????
(55.4362°N, 38.1183°E)
Time: 12:53:29
(UTC+00:00)

Cosmos 2219 Rocket - Pass Details

Date: 28 October 2021
Orbit: 826 x 848 km, 71.0° (Epoch: 01 December)

Event Time Altitude Azimuth Distance (km) Brightness Sun altitude
Exits shadow 02:17:12 29° 293° (WNW) 1,509 3.0 -18.5°
Maximum altitude 02:19:15 39° 250° (WSW) 1,247 2.6 -18.2°
Drops below altitude 10° 02:24:28 10° 183° (S) 2,465 4.6 -17.4°
Sets 02:27:02 0° 176° (S) 3,398 5.4 -17.1°
